Location: Newark
(48.6461°N, 4.3644°W)
Time: 00:04:04
(UTC+00:00)

Transit 4A - Visible Passes

Search period start: 20 January 2020 00:00
Search period end: 30 January 2020 00:00
Orbit: 871 x 973 km, 66.8° (Epoch: 19 January)

Date Brightness Start Highest point End Pass type
(mag) Time Alt. Az. Time Alt. Az. Time Alt. Az.
20 Jan 10.2 07:05:45 10° SSE 07:10:49 29° ESE 07:15:48 10° NE visible
20 Jan 10.4 17:50:38 10° NW 17:55:15 25° WSW 17:59:52 10° SSW visible
21 Jan 9.4 07:14:21 10° S 07:19:58 41° ESE 07:25:27 10° NE visible
21 Jan 10.9 18:00:42 10° WNW 18:04:17 17° WSW 18:07:52 10° SW visible
22 Jan 11.4 18:11:52 10° W 18:13:14 11° W 18:14:37 10° WSW visible
23 Jan 10.9 05:49:36 10° SE 05:52:58 16° ESE 05:56:19 10° ENE visible
24 Jan 10.3 05:57:26 10° SSE 06:02:00 23° ESE 06:06:29 10° ENE visible
25 Jan 9.7 06:05:49 10° S 06:11:06 33° ESE 06:16:17 10° NE visible
26 Jan 8.9 06:14:33 10° S 06:20:15 46° ESE 06:25:52 10° NE visible
27 Jan 10.8 04:42:15 10° ESE 04:44:13 12° E 04:46:12 10° E visible
27 Jan 8.3 06:23:32 10° SSW 06:29:29 66° ESE 06:35:20 10° NE visible
28 Jan 10.4 04:49:21 10° SE 04:53:12 18° ESE 04:57:02 10° ENE visible
28 Jan 7.8 06:32:46 10° SSW 06:38:48 90° NW 06:44:42 10° NE visible
29 Jan 9.8 04:57:25 10° SSE 05:02:15 26° ESE 05:07:02 10° NE visible
29 Jan 7.8 06:42:12 10° SW 06:48:10 67° NW 06:54:02 10° NNE visible
